sat.trackr.live / text

‹ back to catalog

STARLINK-6279

NORAD 56411 · 2023-061AP

PAYLOAD ACTIVE UNKNOWN

§ Identity

Operator
Country
US
Launch date
2023-05-04
Launch site
AFETR
Launch vehicle
Mass (kg)
RCS (m²)

Purposes: comms

External: N2YO · Heavens-Above · Gunter

§ Orbital elements

Epoch: 2026-05-25T04:59:02.045184Z

Period
94.26 min
Inclination
43.0075°
Eccentricity
0.0003378
Mean motion
15.27624916 rev/d
Perigee alt
480.6 km
Apogee alt
485.2 km
Semi-major
6,861.1 km
B*
-1.8529e-4
RAAN
115.1925°
Arg perigee
277.8956°
Mean anomaly
82.1513°
Rev number
16,857

§ Raw data

STARLINK-62791 56411U 23061AP  26145.20766256 -.00005366  00000+0 -18529-3 0  99902 56411  43.0075 115.1925 0003378 277.8956  82.1513 15.27624916168577

JSON: /api/v1/satellites/56411 · /tle

For live sub-satellite position, see the globe view (requires WebGL).

§ Visibility from observer

Set your observer location to see the next 7 days of passes ≥ 10°. The values pass through the URL so the page stays shareable.

No JS? Fill the form by hand. The geolocation button needs JavaScript.